    Orbital elements:
    2013 CR35                                                Earth MOID = 0.0310 AU
    Epoch 2013 Apr. 18.0 TT = JDT 2456400.5                 MPC
    M  50.50726              (2000.0)            P               Q
    n   0.46985856     Peri.  138.74906     -0.06700674     -0.99348908
    a   1.6386692      Node   314.86532     +0.87794003     -0.01483235
    e   0.4118688      Incl.    7.46951     +0.47405843     -0.11295770
    P   2.10           H   22.4           G   0.15           U   7
    Residuals in seconds of arc
    130207 703  0.4-  0.1+    130207 E23  0.3+  0.3-    130207 B75  0.2-  0.2+
    130207 703  0.2-  0.1+    130207 E23  0.1-  0.4-    130208 807  0.0   0.2+
    130207 703  0.1-  0.3-    130207 E23  0.0   0.2-    130208 807  0.1-  0.4+
    130207 703  0.5-  0.3-    130207 E23  0.1+  0.2-    130208 807  0.0   0.3+
    130207 703  0.3-  0.0     130207 474  0.1-  0.2+    130208 807  0.1-  0.4+
    130207 703  0.1+  0.1-    130207 474  0.0   0.2-    130208 807  0.1-  0.4+
    130207 H06 (0.0   3.6+)   130207 474  0.1-  0.0     130208 G48  0.1+  0.0
    130207 H06 (1.1+  2.7+)   130207 474  0.1+  0.0     130208 G48  0.0   0.2+
    130207 H06 (1.2+  2.2+)   130207 474  0.0   0.1+    130208 G48  0.0   0.4+
    130207 703  0.2+  0.1+    130207 J08  0.6-  1.4+    130208 G48  0.3-  0.2+
    130207 H06  0.1-  0.1-    130207 J08 (0.1+  1.8+)   130208 G48  0.3-  0.4+
    130207 H06  0.5-  0.9+    130207 J08  0.1-  0.2-    130208 V05  0.3+  0.6-
    130207 H21  0.1+  0.1-    130207 J08  0.3+  0.1-    130208 448  0.0   0.0
    130207 H06  0.2+  1.0-    130207 204  0.1-  0.1-    130208 448  0.1-  0.0
    130207 703  0.2+  0.4+    130207 204  0.0   0.1-    130208 V05  0.9+  1.2-
    130207 H21  0.3+  0.2-    130207 204  0.1-  0.0     130208 V05  0.6+  1.1-
    130207 H21  0.1+  0.1-    130207 204  0.1+  0.0     130208 448  0.0   0.1+
    130207 H21  0.4+  0.4-    130207 C77  0.1-  0.0     130208 448  0.1-  0.1+
    130207 703  0.2-  0.1-    130207 204  0.1-  0.0     130208 448  0.0   0.0
    130207 703  0.3-  0.1+    130207 C77  0.1+  0.0     130208 G96  0.1-  0.0
    130207 703  0.0   0.2+    130207 C77  0.1-  0.1-    130208 G96  0.3-  0.0
    130207 703  0.3-  0.8-    130207 C77  0.0   0.2-    130208 G96  0.1-  0.2+
    130207 H06  0.1+  0.4+    130207 C77  0.1-  0.0     130208 G96  0.4-  0.1+
    130207 H06  0.4+  0.8+    130207 B75  0.3-  0.1-    130208 474  0.3-  0.4+
    130207 H06  0.4+  0.2+    130207 B75  0.1-  0.1-    130208 474  0.2-  0.0
    130207 H06  0.2+  0.9+    130207 B75  0.5+  0.2+    130208 474  0.2+  0.0
    130207 E23  0.4+  0.1-    130207 B75  1.0+  0.9-
    
    Ephemeris:
    2013 CR35                a,e,i = 1.64, 0.41, 7                   q = 0.9638
    Date    TT    R. A. (2000) Decl.     Delta      r     Elong.  Phase     V
    2013 01 09    22 57 42.6 +37 27 31   0.1002  0.9682    78.4    95.8    20.8
    ...
    2013 01 24    02 32 46.1 +56 57 39   0.04556 0.9987   107.1    70.4    18.2
    ...
    2013 02 01    07 16 50.1 +33 57 56   0.04489 1.0251   151.8    27.1    16.9
    ...
    2013 02 07    08 24 19.1 +13 46 40   0.06438 1.0489   165.8    13.3    17.3
    2013 02 08    08 30 34.9 +11 33 49   0.06853 1.0531   166.0    13.1    17.5
    2013 02 09    08 36 04.2 +09 36 12   0.07285 1.0574   165.8    13.3    17.6
    ...
    2013 02 15    08 58 39.2 +01 39 03   0.1015  1.0849   162.3    16.0    18.5
    ...
    2013 02 23    09 15 23.9 -03 22 21   0.1447  1.1250   158.2    19.1    19.4
    ...
    2013 03 10    09 34 30.6 -06 27 57   0.2386  1.2080   151.4    23.2    20.8
    
    A. U. Tomatic                (C) Copyright 2013 MPC           M.P.E.C. 2013-C37
    

    Read MPEC 2013-C36 Read MPEC 2013-C38


    MPEC number:

    Enter an MPEC number in one of the following forms:

    • 1997-B01 (the full form)
    • J97B01 (the packed version of the full form)
    • B01 (the abbreviated form)